Location: Apeadero de Tablada
(40.7053°N, 4.1268°W)
Time: 12:24:42
(UTC+00:00)

Daily predictions for brighter satellites

Satellite Brightness Start Highest point End
(mag) Time Altitude Azimuth Time Altitude Azimuth Time Altitude Azimuth
BREEZE-M DEB (TANK) 4.4 19:56:25 10° NW 19:59:03 30° NNE 20:04:51 10° E
Cosmos 44 Rocket 3.8 19:59:25 10° SW 20:04:34 73° WNW 20:09:50 10° NNE
Cosmos 2098 Rocket 3.9 20:03:25 10° SE 20:05:37 19° E 20:08:03 10° NE
CSL-04 Rocket 4.4 20:02:17 10° S 20:07:38 56° W 20:12:55 10° NNW
ERS-2 3.0 20:04:27 10° NE 20:07:42 30° E 20:10:55 10° SSE
IRIS 4.1 20:07:43 10° W 20:10:02 52° SSW 20:12:59 10° ESE
USA 186 2.6 20:08:40 10° S 20:11:42 49° W 20:14:33 10° NNW
SEDSat Delta rocket 4.3 20:10:15 10° SW 20:13:28 22° S 20:16:38 10° SE
GENESIS II 4.2 20:12:46 10° NW 20:16:41 83° SW 20:20:33 10° SSE
Ariane Rocket 3.2 20:12:19 10° SSE 20:17:16 55° ENE 20:22:13 10° N
Cosmos 1437 2.9 20:20:32 10° NNW 20:23:15 57° W 20:25:57 10° S
SL-16 R/B 4.0 20:19:53 10° N 20:23:40 18° NE 20:27:26 10° E
Centaur D AC-28 4.1 20:20:23 10° SW 20:25:26 34° SSE 20:44:01 10° E
Cosmos 2360 4.3 20:22:15 10° NNW 20:27:57 80° WSW 20:33:38 10° SSE
Cosmos 371 Rocket 4.0 20:24:33 10° N 20:29:04 38° ENE 20:32:51 14° SE
Helios 1A Rocket 3.8 20:30:18 10° S 20:34:12 49° W 20:38:10 10° NNW
USA 276 4.5 20:32:52 10° NW 20:35:10 18° NNE 20:37:28 10° ENE
SPOT 1/Viking Rocket 4.4 20:31:18 13° SE 20:35:19 33° ENE 20:39:57 10° N
Cosmos 1076 Rocket 3.5 20:32:10 10° S 20:36:25 63° E 20:40:44 10° NNE
BREEZE-M DEB (TANK) 3.3 20:34:08 10° NW 20:36:52 37° NNE 20:42:55 10° E
Atlas Centaur 2 2.9 20:34:09 10° SW 20:37:18 19° S 20:39:04 15° SSE
OBJECT-B 3.0 20:36:54 10° SSW 20:39:36 25° W 20:42:18 10° NW
Cosmos 1697 Rocket 3.3 20:34:58 10° NNW 20:40:30 55° WSW 20:46:00 10° S
ATLAS 2AS CENTAUR R/B 3.9 20:34:14 10° SW 20:41:58 55° NW 20:49:34 10° NNE
Terra 3.9 20:47:56 11° E 20:50:04 14° ENE 20:52:23 10° NNE
ATLAS 3B R/B 2.9 20:43:52 10° NNW 20:51:01 70° NE 20:56:42 18° SE
SPOT 5 4.4 20:50:48 14° E 20:52:35 18° ENE 20:55:29 10° NNE
Cosmos 2082 Rocket 3.0 20:48:09 10° SW 20:53:38 55° WNW 20:59:12 10° NNE
Resurs 1-3 4.3 20:49:36 10° S 20:53:53 54° W 20:58:11 10° NNW
Cosmos 1092 Rocket 4.2 20:48:20 10° SSE 20:54:18 50° E 21:00:21 10° NNE
Cosmos 1842 Rocket 4.2 20:49:58 10° NNW 20:54:22 58° W 20:58:45 10° S
Cosmos 1633 3.0 20:52:15 10° SSW 20:55:49 63° W 20:59:24 10° N
USA 267 4.3 20:52:46 10° ENE 20:57:25 20° ESE 20:59:01 19° SE
Cosmos 2278 3.7 20:54:46 10° NNW 21:00:27 88° ENE 21:04:37 19° SSE
ERS-1 Rocket 4.2 21:00:35 19° ESE 21:02:53 26° ENE 21:07:01 10° N
Cosmos 158 Rocket 3.9 21:00:11 10° SSW 21:05:17 81° ESE 21:10:35 10° NNE
Cosmos 332 Rocket 4.1 21:01:39 10° N 21:06:27 52° ENE 21:08:58 26° SE
Cosmos 2360 Rocket 4.0 21:03:19 10° N 21:07:04 18° NE 21:10:08 12° E
Cosmos 2026 Rocket 4.2 21:02:18 16° SSE 21:07:16 50° E 21:13:18 10° NNE
Cosmos 1606 3.6 21:03:55 10° NNW 21:07:33 46° W 21:11:00 11° SSW
Meteor 2-8 Rocket 4.5 21:03:57 10° N 21:10:08 82° W 21:15:34 13° S
Landsat 7 4.0 21:10:54 16° S 21:14:39 69° W 21:19:24 10° NNW
GP-B 3.5 21:10:23 10° NNE 21:14:39 44° E 21:16:13 31° SE
Nadezhda 4 Rocket 4.3 21:08:41 10° SSW 21:14:47 67° W 21:21:01 10° N
ISS -3.3 21:11:31 10° NW 21:14:50 52° NNE 21:15:56 34° E
IGS 5A 4.1 21:12:16 15° S 21:15:32 53° W 21:19:37 10° NNW
Cosmos 2333 Rocket 4.5 21:15:33 10° NNE 21:17:10 11° NE 21:18:47 10° ENE
Spot 2 Rocket 3.8 21:14:48 27° SE 21:17:18 51° ENE 21:22:15 10° N
SPOT 3 Rocket 3.7 21:14:07 18° S 21:18:02 76° WSW 21:23:16 10° NNW
Cosmos 2112 Rocket 4.4 21:17:49 27° SSE 21:20:05 41° ESE 21:25:00 10° NE
Cosmos 1680 Rocket 3.7 21:17:27 22° SSE 21:20:32 48° ESE 21:25:36 10° NNE
Meteor 1-26 Rocket 4.4 21:15:01 10° N 21:20:55 61° ENE 21:23:54 28° SSE
Cosmos 1627 Rocket 4.5 21:17:39 16° S 21:22:52 70° E 21:29:09 10° NNE
Cosmos 1812 4.3 21:20:03 10° NNE 21:22:59 20° ENE 21:23:03 20° ENE
MetOp-B 4.2 21:21:31 21° S 21:25:08 77° WSW 21:30:31 10° NNW
Okean 3 Rocket 4.1 21:24:58 36° ESE 21:25:56 41° E 21:30:10 10° NNE
CZ-2C R/B 3.6 21:22:15 10° NNE 21:26:47 85° WNW 21:30:18 16° SSW
USA 245 3.8 21:25:06 28° SSE 21:27:54 84° ENE 21:32:18 10° N
Cosmos 1980 Rocket 3.1 21:23:30 10° NW 21:28:47 42° WSW 21:32:51 16° S
Cosmos 1428 Rocket 4.4 21:31:48 17° S 21:36:38 87° E 21:42:46 10° N
Cosmos 1933 3.6 21:34:54 10° NNW 21:38:55 66° W 21:40:22 37° SSW
Resurs 01 Rocket 3.2 21:35:58 13° SSW 21:39:22 31° W 21:43:20 10° NNW
Cosmos 2322 Rocket 2.6 21:34:21 10° NNW 21:39:50 49° ENE 21:41:46 35° ESE
Cosmos 304 Rocket 3.8 21:35:53 10° NNW 21:40:42 79° WSW 21:42:25 40° S
Cosmos 2151 4.2 21:37:10 10° SSW 21:41:09 40° WNW 21:45:11 10° N
CARTOSAT-1 3.5 21:46:36 46° S 21:47:49 79° WSW 21:52:10 10° NNW
Cosmos 2084 3.1 21:48:51 67° SSE 21:49:08 70° ESE 21:53:15 10° NE
Meteor 2-3 Rocket 4.4 21:46:30 10° SSW 21:52:01 55° WNW 21:57:38 10° N
Cosmos 1553 Rocket 4.0 21:47:40 10° N 21:53:41 61° E 21:55:36 42° SE
Gbstr 26 Del rocket 3.1 21:51:10 10° NW 21:54:54 57° NNE 21:55:26 51° ENE
Cosmos 1862 3.7 21:57:03 50° ENE 21:57:03 50° ENE 22:00:29 10° NNE
Cosmos 2219 Rocket 4.0 21:57:09 10° N 22:01:02 19° NE 22:02:58 16° ENE
Cosmos 1624 Rocket 4.3 21:56:58 10° N 22:02:03 51° ENE 22:02:57 46° E
Cosmos 1782 3.2 22:01:11 10° NNW 22:05:07 55° W 22:05:38 51° SW
ARIANE 5 R/B 2.9 22:04:24 49° SSW 22:05:21 62° WSW 22:09:48 10° NNW
Cosmos 1515 Rocket 4.1 22:02:40 10° N 22:06:43 43° ENE 22:06:43 43° ENE
H-2A R/B 4.1 22:04:00 10° NNE 22:07:15 41° ENE 22:07:15 41° ENE
COSMOS 2455 3.7 22:09:10 32° E 22:09:10 32° E 22:13:35 10° NE
SL-16 R/B 2.2 22:02:44 10° NNW 22:08:24 76° WSW 22:09:55 50° S
Cosmos 1271 Rocket 4.1 22:07:35 10° NNW 22:11:12 33° W 22:12:03 30° WSW
USA 276 3.6 22:08:40 10° NW 22:10:46 37° NW 22:10:46 37° NW
Cosmos 2237 4.2 22:06:53 10° NNW 22:12:36 69° ENE 22:13:45 54° ESE
Cosmos 1655 Rocket 4.1 22:12:44 48° SE 22:14:06 59° E 22:20:22 10° NNE
COSMOS 2428 4.4 22:11:38 10° N 22:15:49 20° NE 22:17:35 18° ENE
Cosmos 1766 Rocket 4.3 22:14:48 37° SW 22:16:06 50° W 22:20:23 10° N
Meteor 2-6 Rocket 4.0 22:12:36 10° N 22:18:02 83° E 22:18:52 64° SSE
Cosmos 1151 Rocket 3.5 22:15:47 10° NNW 22:20:01 51° W 22:20:31 48° WSW
Cosmos 1417 Rocket 4.4 22:14:39 10° N 22:20:59 83° E 22:22:33 54° SSE
S3M 4.0 22:17:38 10° N 22:24:03 72° E 22:25:25 55° SE
Cosmos 1328 Rocket 3.8 22:20:06 10° NNW 22:24:30 62° W 22:24:42 61° WSW
Terra 1.8 22:26:49 65° SW 22:27:13 69° W 22:31:59 10° NNW
ATLAS 5 CENTAUR R/B 4.2 22:23:22 10° N 22:27:19 19° NE 22:30:39 13° ENE
SPOT 5 3.4 22:30:02 40° WSW 22:30:21 40° W 22:34:29 10° NNW
SL-27 R/B 4.0 22:39:50 36° NNW 22:39:50 36° NNW 22:42:26 10° N
USA 267 3.1 22:34:24 10° NE 22:40:59 83° SE 22:46:07 18° SW
ATLAS 3B R/B 4.3 22:35:34 10° WNW 22:41:11 25° WSW 22:43:58 20° SW
ERS-1 Rocket 4.0 22:40:34 33° WSW 22:41:30 36° W 22:46:07 10° NNW
Cosmos 2056 Rocket 3.5 22:36:54 10° NNW 22:42:14 70° WSW 22:42:28 69° SW
Meteor 1-27 Rocket 3.8 22:38:22 10° N 22:44:00 64° ENE 22:44:14 63° E
Cosmos 2360 Rocket 2.1 22:46:03 10° NNW 22:51:41 75° WSW 22:51:53 74° SW
IRIDIUM 104 4.5 22:47:29 10° N 22:52:18 63° ENE 22:52:18 63° ENE
Cosmos 1500 Rocket 4.2 22:59:40 54° NNW 22:59:40 54° NNW 23:03:18 10° N
IRIDIUM 114 4.4 22:56:35 10° N 23:01:25 74° NNE 23:01:25 74° NNE
Cosmos 2333 Rocket 2.3 22:56:58 10° NNW 23:02:36 65° ENE 23:02:38 65° ENE
Cosmos 972 Rocket 4.1 23:07:27 78° N 23:07:27 78° N 23:12:13 10° NNE
COBE Rocket 4.3 23:09:07 57° N 23:09:07 57° N 23:12:53 10° N
IRIDIUM 103 4.4 23:05:45 10° N 23:10:33 75° NNW 23:10:33 75° NNW
Cosmos 2322 3.7 23:07:07 10° NNW 23:12:44 74° NE 23:12:44 74° NE
Cosmos 292 Rocket 4.5 23:08:20 10° NNW 23:12:09 49° WNW 23:12:09 49° WNW
USA 234 4.0 23:10:02 27° E 23:13:11 46° NNE 23:19:23 10° NW
Cosmos 2297 Rocket 4.1 23:17:11 18° ENE 23:17:11 18° ENE 23:19:23 10° NE
Lacrosse 5 4.3 23:21:59 12° ENE 23:21:59 12° ENE 23:22:20 10° ENE
Cosmos 2237 Rocket 3.8 23:18:22 10° N 23:22:59 25° NE 23:24:01 23° ENE
Cosmos 2322 Rocket 3.8 23:19:12 10° NW 23:23:28 23° W 23:23:35 23° WSW
Cosmos 2227 Rocket 4.1 23:28:53 17° ENE 23:28:53 17° ENE 23:30:54 10° NE
Sich 1 4.3 23:28:46 40° N 23:28:46 40° N 23:31:37 10° N
Meteor 1-25 Rocket 4.3 23:30:16 74° N 23:30:16 74° N 23:35:20 10° N
Cosmos 494 Rocket 4.4 23:33:16 56° NNE 23:33:16 56° NNE 23:37:16 10° NNE
Cosmos 2285 Rocket 3.8 23:26:15 10° NNW 23:32:32 87° W 23:32:32 87° W
Cosmos 2315 Rocket 4.2 23:30:38 10° NNW 23:36:49 58° W 23:37:07 58° WSW
Cosmos 1048 Rocket 4.5 23:39:38 55° NW 23:39:38 55° NW 23:44:07 10° NNE
Cosmos 2219 Rocket 2.5 23:39:57 10° NNW 23:44:40 59° WNW 23:44:40 59° WNW
Meteor 1-19 Rocket 4.4 23:44:40 10° N 23:49:32 67° N 23:49:32 67° N
COSMOS 2455 3.9 23:52:15 33° W 23:54:04 40° NW 23:59:43 10° NNE
